Regional Weather Roundup
Issued by NWS New Orleans/Baton Rouge, LA

Home | Current Version | Previous Version | Text Only | Print | Product List | Glossary Off
Versions: 1 2 3 4 5 6 7 8 9 10 11 12 13 14 15 16 17 18 19 20 21 22 23 24 25 26 27 28 29 30 31 32 33 34 35 36 37 38 39 40 41 42 43 44 45 46 47 48 49 50

323
ASUS44 KLIX 171101
RWRLIX
NEW ORLEANS REGIONAL WEATHER ROUNDUP
NATIONAL WEATHER SERVICE NEW ORLEANS LA
600 AM CDT WED SEP 17 2014

NOTE: "FAIR" INDICATES FEW OR NO CLOUDS BELOW 12,000 FEET WITH NO
      SIGNIFICANT WEATHER AND/OR OBSTRUCTIONS TO VISIBILITY.
      SKY/WX - SKY CONDITION AND SIGNIFICANT WEATHER.
      TMP - AIR TEMPERATURE.     DP    - DEWPOINT TEMPERATURE.
      RH  - RELATIVE HUMIDITY.   PRES  - PRESSURE.
      HI  - HEAT INDEX.          WCI   - WIND CHILL INDEX.

*  THESE STATIONS ARE NOT NWS OR FAA STATIONS AND ARE NOT UNDER
   NWS QUALITY CONTROL.

LAZ038-040-048-061>063-065>067-069-171200-
SOUTHEAST LOUISIANA

CITY           SKY/WX    TMP DP  RH WIND       PRES   REMARKS
N.O. AUDUBON   NOT AVBL
N.O. INTL ARPT MOCLDY    73  70  90 W6        29.96S
N.O. LAKEFRONT CLOUDY    79  69  71 CALM      29.96S
N.O. DOWNTOWN*   N/A     77  70  78 CALM      29.96S
SLIDELL        CLOUDY    72  70  93 CALM      29.96S
BATON ROUGE    PTCLDY    72  70  93 CALM      29.97S
BOOTHVILLE     LGT RAIN  77  75  93 N3        29.96R FOG
BELLE CHASSE   CLOUDY    75  71  87 CALM      29.95F
BOGALUSA*        N/A     73  69  89 CALM      29.98R FOG
GALLIANO*      NOT AVBL
NEW ROADS*     FOG       71  70  98 CALM      29.97S VSB 1/2
GONZALES*      CLOUDY    71  71 100 CALM      29.96F FOG
HAMMOND*       NOT AVBL
HOUMA*         MOCLDY    73  70  89 NW3       29.96F
PORT FOURCHON* NOT AVBL

$$

MSZ070-080>082-171200-
SOUTHERN MISSISSIPPI

CITY           SKY/WX    TMP DP  RH WIND       PRES   REMARKS
MCCOMB         MOCLDY    71  69  93 CALM      29.98R FOG
GULFPORT       CLOUDY    72  71  97 CALM      29.95S
BILOXI         CLOUDY    73  71  92 VRB3      29.95S
PASCAGOULA     CLOUDY    71  70  96 CALM      29.96R FOG

$$

COASTAL OBSERVATIONS
LAKE AND NEARSHORE STATIONS

STATION/POSITION TIME  TEMP    WIND        PRES    WAVE
                       AIR SEA DIR/SP/G            HT/PER
                 (UTC) (F)     (DEG/KT/KT) (MB)    (FT/S)
PASCAGOULA       1000   73     320/  3/  5 1013.7
WAVELAND YACHT   1000   75      10/  5/  6 1013.7
GRAND ISLE       1000   79 86  360/  4/  7 1014.6
SOUTHWEST PASS   1000   76 90  320/  3/  5 1014.8
NEW CANAL        1000   80 82   10/  3/  4 1014.9
SHELL BEACH      1000   79 80  320/  4/  6 1014.2

OFFSHORE STATIONS

STATION/POSITION TIME  TEMP    WIND        PRES    WAVE
                       AIR SEA DIR/SP/G            HT/PER
                 (UTC) (F)     (DEG/KT/KT) (MB)    (FT/S)
64 S DAUPHIN ISL 1031   82 85  360/  6/  8 1014.2    2/ 5

$$




USA.gov is the U.S. government's official web portal to all federal, state and local government web resources and services.